Regional Weather Roundup
Issued by NWS

Home | Current Version | Previous Version | Graphics & Text | Print | Product List | Glossary Off
Versions: 1 2 3 4 5 6 7 8 9 10 11 12 13 14 15 16 17 18 19 20 21 22 23 24 25 26 27 28 29 30 31 32 33 34 35 36 37 38 39 40 41 42 43 44 45 46 47 48 49 50

000
ASUS43 KMKX 131320
RWRWI

WISCONSIN REGIONAL WEATHER ROUNDUP
NATIONAL WEATHER SERVICE MILWAUKEE/SULLIVAN WI
700 AM CST WED DEC 13 2017

NOTE: "FAIR" INDICATES FEW OR NO CLOUDS BELOW 12,000 FEET WITH NO
SIGNIFICANT WEATHER AND/OR OBSTRUCTIONS TO VISIBILITY.

WIZ001-002-006>008-014>016-023>028-131400-
NORTHWEST WISCONSIN

CITY           SKY/WX    TMP DP  RH WIND       PRES   REMARKS
SUPERIOR ARPT  LGT SNOW  19  17  91 E10       29.49R WCI   7
ASHLAND        LGT SNOW  16  13  88 E7        29.50R VSB 1   WCI   6
HAYWARD        SNOW      18  13  80 NE8       29.42R VSB 1/2 WCI   8
SIREN          LGT SNOW  21  18  88 N3        29.41R VSB 3/4
CUMBERLAND     CLOUDY    21  16  79 SE8       29.36F WCI  12
RICE LAKE      CLOUDY    21  17  83 E7        29.38F WCI  13
CHETEK           N/A     20  16  83 E3        29.38F
LADYSMITH      CLOUDY    19  15  88 E8        29.41F WCI   8
EAU CLAIRE     CLOUDY    21  15  78 E8        29.36F WCI  11
MENOMONIE      CLOUDY    22  17  79 E9        29.36F WCI  12
NEW RICHMOND   CLOUDY    21  16  80 NE7       29.36R WCI  12
OSCEOLA        MOCLDY    22  17  81 NE6       29.40F WCI  15
$$

WIZ003>005-009-010-017-018-131400-
NORTH CENTRAL WISCONSIN

CITY           SKY/WX    TMP DP  RH WIND       PRES   REMARKS
MANITOWISH WTR LGT SNOW  12  10  94 E7        29.44R VSB 3/4 WCI   1
ARBOR VITAE    LGT SNOW  14  11  87 SE10      29.44R VSB 1   WCI   1
WOODRUFF       LGT SNOW  14  11  87 SE10      29.44R VSB 1   WCI   1
RHINELANDER    SNOW      11   8  88 SE14      29.45F VSB 1/2 WCI  -5
EAGLE RIVER    LGT SNOW  10   5  80 E13       29.46F WCI  -5
LAND O LAKES   LGT SNOW  10   7  85 SE9G20    29.49S VSB 3/4 WCI  -3
PHILLIPS       LGT SNOW  13  11  92 SE8       29.41S VSB 3/4 WCI   2
TOMAHAWK       LGT SNOW  12   9  88 E3        29.44F VSB 3/4
MEDFORD        CLOUDY    15  11  86 E8        29.39F WCI   4
MERRILL        LGT SNOW  13  10  87 E7        29.45F WCI   3
$$

WIZ029-030-035-036-043>047-131400-
CENTRAL WISCONSIN

CITY           SKY/WX    TMP DP  RH WIND       PRES   REMARKS
WAUSAU         LGT SNOW  14  11  87 E13       29.43F FOG     WCI   0
MOSINEE        CLOUDY    16  12  86 E13G18    29.45F WCI   2
MARSHFIELD     CLOUDY    17  14  88 E10       29.40F WCI   5
STEVENS POINT  CLOUDY    15  12  88 E12       29.45F WCI   1
WAUPACA        FLURRIES  20  15  81 E9        29.49F WCI   9
WAUTOMA        CLOUDY    20  17  88 E7        29.46F WCI  11
WISC RAPIDS    CLOUDY    20  15  81 E7        29.45F WCI  11
CAMP DOUGLAS   CLOUDY    25  18  74 SE6       29.38F WCI  18
$$

WIZ011>013-019>022-031-037>040-048>050-131400-
NORTHEAST WISCONSIN

CITY           SKY/WX    TMP DP  RH WIND       PRES   REMARKS
ANTIGO         LGT SNOW  10   8  89 E12       29.46F VSB 3/4 WCI  -4
SHAWANO        SNOW      17  13  85 E6        29.55F VSB 1/2 WCI   9
OCONTO         CLOUDY    18  15  90 E6        29.58F WCI   9
STURGEON BAY   LGT SNOW  19  16  88 E7        29.60F VSB 1   WCI  10
GREEN BAY      LGT SNOW  19  14  81 E9        29.55F VSB 3/4 WCI   8
MANITOWOC      LGT SNOW  27  25  93 SE16      29.55F VSB 1   WCI  14
APPLETON       LGT SNOW  18  12  79 E9        29.48F WCI   6
CLINTONVILLE   NOT AVBL
OSHKOSH        CLOUDY    20  16  84 E12       29.47F WCI   8
$$

WIZ032>034-041-042-053>061-131400-
SOUTHWEST WISCONSIN

CITY           SKY/WX    TMP DP  RH WIND       PRES   REMARKS
LA CROSSE      CLOUDY    30  22  72 S9        29.35F WCI  22
SPARTA         CLOUDY    27  20  76 SE7       29.37F WCI  19
VIROQUA        CLOUDY    25  22  87 SE12      29.35F WCI  15
BOSCOBEL       CLOUDY    29  19  66 S9        29.43F WCI  20
PRAIRIE DU CHI CLOUDY    30  20  67 SE6       29.39F WCI  24
PLATTEVILLE    CLOUDY    28  21  76 S13       29.43F WCI  17
$$

WIZ056-057-062-063-064-067-068-131400-
SOUTH CENTRAL WISCONSIN

CITY           SKY/WX    TMP DP  RH WIND       PRES   REMARKS
REEDSBURG      CLOUDY    27  17  68 S8G17     29.41F WCI  18
BARABOO/DELLS  CLOUDY    27  17  68 S14       29.40F WCI  15
LONE ROCK      CLOUDY    28  19  69 SE7       29.43F WCI  21
MINERAL POINT  FLURRIES  28  21  74 SE9       29.42F WCI  20
MADISON        CLOUDY    27  17  66 S14G28    29.43F WCI  16
MIDDLETON      CLOUDY    29  18  64 S13G18    29.45F WCI  18
WATERTOWN      CLOUDY    23  17  76 SE14      29.46F WCI  11
MONROE         CLOUDY    28  19  69 S21G29    29.43F WCI  15
JANESVILLE     CLOUDY    28  18  64 S15G24    29.50F WCI  17
$$

WIZ051-052-058>065-066-070>072-131400-
SOUTHEAST WISCONSIN

CITY           SKY/WX    TMP DP  RH WIND       PRES   REMARKS
MILWAUKEE      CLOUDY    23  18  81 S13G26    29.57F WCI  11
WAUKESHA       CLOUDY    19  14  79 SE16      29.53F WCI   5
MILWAUKEE/TIMM CLOUDY    21  16  79 S10G16    29.55F WCI  10
RACINE         CLOUDY    24  17  74 S13G24    29.58F WCI  12
BURLINGTON       N/A    N/A N/A N/A MISG        N/A
KENOSHA        CLOUDY    25  12  58 S16       29.57F WCI  12
FOND DU LAC    CLOUDY    22  16  78 SE15      29.46F WCI   9
SHEBOYGAN      LGT SNOW  24  21  88 S15G23    29.54F FOG     WCI  11
WEST BEND      CLOUDY    19  18  93 S7        29.50F WCI  10
JUNEAU         CLOUDY    22  16  76 SE20G26   29.45F WCI   7
$$

LSZ147-162-131400-
LAKE SUPERIOR

STATION/POSITION TIME  TEMP    WIND        PRES    WAVE
                       AIR SEA DIR/SP/G            HT/PER
                 (UTC) (F)     (DEG/KT/KT) (MB)    (FT/S)
DEVILS ISLAND    1300   22      80/ 23/ 25 1000.6R
SAXON HARBOR     1240   17                  999.0R
$$

LMZ867-665-643>646-131400-
LAKE MICHIGAN

STATION/POSITION TIME  TEMP    WIND        PRES    WAVE
                       AIR SEA DIR/SP/G            HT/PER
                 (UTC) (F)     (DEG/KT/KT) (MB)    (FT/S)
NORTHPORT PIER   1243   22     140/ 11/ 15 1003.7F
KEWAUNEE LAKESHO 1254   25     130/ 14/ 19 1001.4F
SHEBOYGAN LAKESH 1300   28     170/ 24/ 27 1001.0F
PORT WASHINGTON  1230   24     180/ 15/ 22 1002.7F
MILWAUKEE LAKESH 1300   24     180/ 13/ 16   N/A
KENOSHA   LAKESH 1300   26     190/ 14/ 20 1001.4
$$

TC  - TEMPERATURE IN CELSIUS
VSB - VISIBILITY IN STATUTE MILES
WCI - WIND CHILL INDEX
HX  - HEAT INDEX





USA.gov is the U.S. government's official web portal to all federal, state and local government web resources and services.